Find Starlink 35411

NORAD ID: 66560 Int'l Des: 2025-268 Owner: SPXS Country: US Constellation: starlink operational
LEOCIRCULAR

リアルタイム位置

3D地球を読み込み中...

Starlink 35411について

説明を読み込み中...

次回通過

Passes for default location (London). Set your location on the main map for personalized predictions.

高度履歴

Loading altitude history...

軌道要素

1 66560U 25268D 26105.40069528 .00005932 00000-0 22488-3 0 9990
2 66560 43.0014 139.7880 0001343 272.3129 87.7569 15.27584542 23572
Epoch: Apr 15, 2026 • Age: 26 hours

現在のステータス

高度 494.3 km
速度 7.62 km/s
衛星直下点 -40.22°S, 3.87°W
打ち上げ日 Nov 21, 2025
運用期間 0.3 years
タイプ internet

技術仕様

分類 Payload
質量 575.00 kg
乾燥質量 530.00 kg
総質量 575.00 kg
長さ 0.30 m
直径 4.10 m
スパン 29.00 m
形状 Box + pan
製造者 SPXS
バスタイプ Starlink V2MO
フェーズステータス In Orbit
所有者/国 SPXS/US

Most Searched